This demonstration page uses our WeatherBlox Daily Observations layout. Learn more.

Left ArrowRight Arrow

Hourly Observations for August 14, 2022

Temp ( °F °C ) Dew Point ( °F °C ) Humidity (%) Winds ( mph kmh ) Pressure ( in mb ) Visibility ( mi km ) Precip ( " mm )
12:59 am 00:59 Mostly Cloudy 64 17.8 59 15 84 84 Calm 30.10 1019 10 16 0.00 0.00
1:59 am 01:59 Mostly Cloudy 64 17.8 58 14.4 80 80 ESE 3 6 30.09 1019 10 16 0.00 0.00
2:59 am 02:59 Mostly Cloudy 64 17.8 58 14.4 80 80 SE 3 6 30.08 1019 10 16 0.00 0.00
3:59 am 03:59 Mostly Cloudy 65 18.3 59 15 81 81 Calm 30.08 1019 10 16 0.00 0.00
4:59 am 04:59 Mostly Cloudy 67 19.4 60 15.6 79 79 Calm 30.06 1018 10 16 0.00 0.00
5:59 am 05:59 Mostly Cloudy 65 18.3 59 15 81 81 Calm 30.06 1018 10 16 0.00 0.00
6:59 am 06:59 Cloudy 68 20 63 17.2 84 84 Calm 30.07 1018 10 16 0.01 0.13
7:59 am 07:59 Cloudy 72 22.2 66 18.9 82 82 Calm 30.07 1018 10 16 0.00 0.00
8:59 am 08:59 Mostly Cloudy 75 23.9 66 18.9 74 74 NNW 5 7 30.08 1019 10 16 0.00 0.00
9:59 am 09:59 Mostly Cloudy 75 23.9 61 16.1 62 62 NNE 3 6 30.07 1018 10 16 0.00 0.00
10:59 am 10:59 Mostly Cloudy 75 23.9 57 13.9 54 54 ENE 7 11 30.08 1019 10 16 0.00 0.00
11:59 am 11:59 Mostly Cloudy 79 26.1 57 13.9 47 47 E 9 15 30.08 1019 10 16 0.00 0.00
12:59 pm 12:59 Mostly Cloudy 79 26.1 57 13.9 47 47 ENE 10 17 30.07 1018 10 16 0.00 0.00
1:59 pm 13:59 Partly Cloudy 81 27.2 57 13.9 44 44 ENE 13 20 30.06 1018 10 16 0.00 0.00
2:59 pm 14:59 Partly Cloudy 79 26.1 55 12.8 44 44 ENE 13 20 30.04 1017 10 16 0.00 0.00
3:59 pm 15:59 Partly Cloudy 79 26.1 55 12.8 44 44 ENE 13 20 30.03 1017 10 16 0.00 0.00
4:59 pm 16:59 Partly Cloudy 79 26.1 57 13.9 47 47 ENE 14 22 30.02 1017 10 16 0.00 0.00
5:59 pm 17:59 Partly Cloudy 77 25 59 15 54 54 E 12 19 30.02 1017 10 16 0.00 0.00
6:59 pm 18:59 Partly Cloudy 75 23.9 59 15 57 57 E 10 17 30.01 1016 10 16 0.00 0.00
7:59 pm 19:59 Partly Cloudy 73 22.8 59 15 61 61 E 8 13 30.01 1016 10 16 0.00 0.00
8:59 pm 20:59 Partly Cloudy 72 22.2 59 15 64 64 E 6 9 30.01 1016 10 16 0.00 0.00
9:59 pm 21:59 Mostly Cloudy 73 22.8 60 15.6 64 64 ESE 5 7 30.02 1017 10 16 0.00 0.00
10:59 pm 22:59 Mostly Cloudy 73 22.8 60 15.6 64 64 E 5 7 30.02 1017 10 16 0.00 0.00
11:59 pm 23:59 Mostly Cloudy with Light Rain 71 21.7 62 16.7 73 73 SE 3 6 30.02 1017 10 16 0.01 0.13

Powered by AerisWeather